IZ0QWM-13 Scandriglia IT current weather conditions

sailwx.info

Wind from 050 at 0 knots gusting 0

Air temperature 7.8° C
Dewpoint 0.7° C

Last reported at 2017-Feb-25 23:54 UTC.
Time now 2017-Feb-26 01:00 UTC

Location: N 42°10' E 012°47'.
View on Google Maps.

See reports from other nearby stations

  
Tides and Currents Weather Stations Pressure Air Temp Water Temp Dewpoint Dewpoint Depression Visibility Wind Speed Wind Dir Waves Ship Positions
date/time (UTC)wind fromknots sea level pressurealtimeterstation pressurevisibilityair tempwater tempwave heightnotes
2017-Feb-25 23:54 050 0 gusting 0 7.8
2017-Feb-25 23:44 050 0 gusting 0 7.8
2017-Feb-25 23:34 320 0 gusting 0 7.8
2017-Feb-25 23:24 320 0 gusting 0 7.8
2017-Feb-25 23:14 320 0 gusting 0 8.9
2017-Feb-25 23:04 320 0 gusting 0 8.9
2017-Feb-25 22:54 050 0 gusting 0 8.9
2017-Feb-25 22:44 050 0 gusting 0 8.9
2017-Feb-25 22:34 090 0 gusting 0 8.9
2017-Feb-25 22:23 090 0 gusting 0 8.9
2017-Feb-25 22:13 090 0 gusting 0 8.9
2017-Feb-25 22:03 090 0 gusting 0 8.9
2017-Feb-25 21:53 090 0 gusting 0 8.9
2017-Feb-25 21:43 090 0 gusting 0 8.9
2017-Feb-25 21:33 8.9
2017-Feb-25 21:23 8.9
2017-Feb-25 21:13 270 0 gusting 0 8.9
2017-Feb-25 21:03 270 0 gusting 0 8.9
2017-Feb-25 20:53 090 0 gusting 0 8.9
2017-Feb-25 20:43 090 0 gusting 0 8.9
2017-Feb-25 20:33 10.0
2017-Feb-25 20:23 10.0
2017-Feb-25 20:13 10.0
2017-Feb-25 20:03 10.0
2017-Feb-25 19:53 270 0 gusting 0 10.0
2017-Feb-25 19:43 270 0 gusting 0 10.0
2017-Feb-25 19:33 270 0 gusting 0 10.0
2017-Feb-25 19:23 270 0 gusting 0 10.0
2017-Feb-25 19:13 270 0 gusting 0 10.0
2017-Feb-25 19:03 270 0 gusting 0 10.0
2017-Feb-25 18:53 270 0 gusting 0 11.1
2017-Feb-25 18:43 270 0 gusting 0 11.1
2017-Feb-25 18:33 270 0 gusting 0 11.1
2017-Feb-25 18:23 270 0 gusting 0 11.1
2017-Feb-25 18:13 270 0 gusting 0 11.1
2017-Feb-25 18:03 270 0 gusting 0 11.1
2017-Feb-25 17:53 270 0 gusting 0 12.2
2017-Feb-25 17:43 270 0 gusting 0 12.2
2017-Feb-25 17:33 270 0 gusting 0 12.2
2017-Feb-25 17:23 270 0 gusting 0 12.2
2017-Feb-25 17:13 050 0 gusting 0 12.8
2017-Feb-25 17:03 050 0 gusting 0 12.8
2017-Feb-25 16:53 050 0 gusting 0 12.8
2017-Feb-25 16:43 050 0 gusting 0 12.8
2017-Feb-25 16:33 050 0 gusting 0 13.9
2017-Feb-25 16:23 050 0 gusting 0 13.9
2017-Feb-25 16:13 15.0
2017-Feb-25 16:03 15.0
2017-Feb-25 15:53 050 0 gusting 0 16.1
2017-Feb-25 15:43 050 0 gusting 0 16.1
2017-Feb-25 15:33 050 0 gusting 0 16.1
2017-Feb-25 15:23 050 0 gusting 0 16.1
2017-Feb-25 15:13 090 0 gusting 0 16.1
2017-Feb-25 15:03 090 0 gusting 0 16.1
2017-Feb-25 14:53 270 0 gusting 0 17.2
2017-Feb-25 14:43 270 0 gusting 0 17.2
2017-Feb-25 14:33 270 0 gusting 0 17.2
2017-Feb-25 14:23 270 0 gusting 0 17.2
2017-Feb-25 14:13 270 0 gusting 0 17.8
2017-Feb-25 14:03 270 0 gusting 0 17.8
2017-Feb-25 13:53 270 0 gusting 0 17.8
2017-Feb-25 13:43 270 0 gusting 0 17.8
2017-Feb-25 13:33 18.9
2017-Feb-25 13:23 18.9
2017-Feb-25 13:13 090 0 gusting 0 17.2
2017-Feb-25 13:03 090 0 gusting 0 17.2
2017-Feb-25 12:53 050 0 gusting 0 16.1
2017-Feb-25 12:43 050 0 gusting 0 16.1
2017-Feb-25 12:33 050 0 gusting 0 16.1
2017-Feb-25 12:23 050 0 gusting 0 16.1
2017-Feb-25 12:13 16.1
2017-Feb-25 12:03 16.1
2017-Feb-25 11:53 090 0 gusting 0 16.1
2017-Feb-25 11:43 090 0 gusting 0 16.1
2017-Feb-25 11:33 050 0 gusting 0 16.1
2017-Feb-25 11:23 050 0 gusting 0 16.1
2017-Feb-25 11:13 050 0 gusting 0 16.1
2017-Feb-25 11:03 050 0 gusting 0 16.1
2017-Feb-25 10:53 050 0 gusting 0 17.2
2017-Feb-25 10:43 050 0 gusting 0 17.2
2017-Feb-25 10:33 050 0 gusting 0 17.2
2017-Feb-25 10:23 050 0 gusting 0 17.2
2017-Feb-25 10:13 090 0 gusting 0 16.1
2017-Feb-25 10:03 090 0 gusting 0 16.1
2017-Feb-25 09:53 330 0 gusting 0 13.9
2017-Feb-25 09:43 330 0 gusting 0 13.9
2017-Feb-25 09:33 330 0 gusting 0 13.9
2017-Feb-25 09:23 330 0 gusting 0 13.9
2017-Feb-25 09:13 12.8
2017-Feb-25 09:03 12.8
2017-Feb-25 08:53 090 0 gusting 0 12.2
2017-Feb-25 08:43 090 0 gusting 0 12.2
2017-Feb-25 08:33 090 0 gusting 0 12.2
2017-Feb-25 08:23 090 0 gusting 0 12.2
2017-Feb-25 08:13 090 0 gusting 0 11.1
2017-Feb-25 08:03 090 0 gusting 0 11.1
2017-Feb-25 07:53 270 0 gusting 0 10.0
2017-Feb-25 07:43 270 0 gusting 0 10.0
2017-Feb-25 07:33 10.0
2017-Feb-25 07:23 10.0
2017-Feb-25 07:13 140 0 gusting 0 10.0
2017-Feb-25 07:03 140 0 gusting 0 10.0
2017-Feb-25 06:53 270 0 gusting 0 10.0
2017-Feb-25 06:43 270 0 gusting 0 10.0
2017-Feb-25 06:34 090 0 gusting 0 11.1
2017-Feb-25 06:24 090 0 gusting 0 11.1
2017-Feb-25 06:14 090 0 gusting 0 11.1
2017-Feb-25 06:04 090 0 gusting 0 11.1
2017-Feb-25 05:54 330 0 gusting 0 12.2
2017-Feb-25 05:44 330 0 gusting 0 12.2
2017-Feb-25 05:34 090 0 gusting 0 12.2
2017-Feb-25 05:24 090 0 gusting 0 12.2
2017-Feb-25 05:14 070 0 gusting 0 12.2
2017-Feb-25 05:04 070 0 gusting 0 12.2
2017-Feb-25 04:54 290 0 gusting 0 12.8
2017-Feb-25 04:44 12.8
2017-Feb-25 04:24 12.8
2017-Feb-25 04:14 12.8
2017-Feb-25 04:04 12.8
2017-Feb-25 03:54 12.8
2017-Feb-25 03:44 12.8
2017-Feb-25 03:34 12.8
2017-Feb-25 03:24 12.8
2017-Feb-25 03:14 270 0 gusting 0 13.9
2017-Feb-25 03:04 270 0 gusting 0 13.9
2017-Feb-25 02:54 270 0 gusting 0 13.9
2017-Feb-25 02:44 270 0 gusting 0 13.9
2017-Feb-25 02:34 090 0 gusting 0 13.9
2017-Feb-25 02:24 090 0 gusting 0 13.9
2017-Feb-25 02:14 090 0 gusting 0 13.9
2017-Feb-25 02:04 090 0 gusting 0 13.9
2017-Feb-25 01:54 050 0 gusting 0 13.9
2017-Feb-25 01:44 050 0 gusting 0 13.9
2017-Feb-25 01:34 270 0 gusting 0 13.9
2017-Feb-25 01:24 270 0 gusting 0 13.9
2017-Feb-25 01:14 050 0 gusting 0 13.9
2017-Feb-25 01:04 050 0 gusting 0 13.9
2017-Feb-25 00:54 270 0 gusting 0 13.9
2017-Feb-25 00:44 270 0 gusting 0 13.9
2017-Feb-25 00:34 090 0 gusting 0 13.9
2017-Feb-25 00:24 090 0 gusting 0 13.9
2017-Feb-25 00:14 050 0 gusting 0 13.9
2017-Feb-25 00:04 050 0 gusting 0 13.9
2017-Feb-24 23:54 320 0 gusting 0 13.9
2017-Feb-24 23:44 320 0 gusting 0 13.9
2017-Feb-24 23:34 110 1 gusting 1 13.9
2017-Feb-24 23:24 110 1 gusting 1 13.9
2017-Feb-24 23:14 110 1 gusting 1 13.9
2017-Feb-24 23:04 110 1 gusting 1 13.9
2017-Feb-24 22:54 270 0 gusting 0 13.9
2017-Feb-24 22:44 270 0 gusting 0 13.9
2017-Feb-24 22:34 13.9
2017-Feb-24 22:24 13.9
2017-Feb-24 22:14 070 0 gusting 0 13.9
2017-Feb-24 22:04 070 0 gusting 0 13.9
2017-Feb-24 21:54 090 0 gusting 0 13.9
2017-Feb-24 21:44 090 0 gusting 0 13.9
2017-Feb-24 21:34 090 0 gusting 0 13.9
2017-Feb-24 21:24 090 0 gusting 0 13.9
2017-Feb-24 21:14 090 0 gusting 0 12.8
2017-Feb-24 21:04 090 0 gusting 0 12.8
2017-Feb-24 20:54 090 0 gusting 0 12.8
2017-Feb-24 20:44 090 0 gusting 0 12.8
2017-Feb-24 20:34 310 0 gusting 0 12.2
2017-Feb-24 20:24 310 0 gusting 0 12.2
2017-Feb-24 20:14 270 0 gusting 0 12.8
2017-Feb-24 20:04 270 0 gusting 0 12.8
2017-Feb-24 19:54 320 0 gusting 0 12.2
2017-Feb-24 19:44 320 0 gusting 0 12.2
2017-Feb-24 19:34 300 0 gusting 0 12.8
2017-Feb-24 19:24 300 0 gusting 0 12.8
2017-Feb-24 19:14 300 0 gusting 0 12.8
2017-Feb-24 19:04 300 0 gusting 0 12.8
2017-Feb-24 18:54 090 0 gusting 0 12.8
2017-Feb-24 18:44 090 0 gusting 0 12.8
2017-Feb-24 18:34 270 0 gusting 0 12.8
2017-Feb-24 18:24 270 0 gusting 0 12.8
2017-Feb-24 18:14 090 0 gusting 0 12.2
2017-Feb-24 18:04 090 0 gusting 0 12.2
2017-Feb-24 17:54 090 0 gusting 0 12.2
2017-Feb-24 17:44 090 0 gusting 0 12.2
2017-Feb-24 17:34 090 0 gusting 0 12.2
2017-Feb-24 17:24 090 0 gusting 0 12.2
2017-Feb-24 17:14 270 0 gusting 0 12.2
2017-Feb-24 17:04 270 0 gusting 0 12.2
2017-Feb-24 16:54 320 0 gusting 0 12.2
2017-Feb-24 16:44 320 0 gusting 0 12.2
2017-Feb-24 16:34 12.2
2017-Feb-24 16:24 12.2
2017-Feb-24 16:14 090 0 gusting 0 12.8
2017-Feb-24 16:04 090 0 gusting 0 12.8
2017-Feb-24 15:54 320 1 gusting 1 13.9
2017-Feb-24 15:44 320 1 gusting 1 13.9
2017-Feb-24 15:34 270 0 gusting 0 13.9
2017-Feb-24 15:24 270 0 gusting 0 13.9
2017-Feb-24 15:14 13.9
2017-Feb-24 15:04 13.9
2017-Feb-24 14:54 090 1 gusting 1 15.0
2017-Feb-24 14:44 090 1 gusting 1 15.0
2017-Feb-24 14:34 090 0 gusting 0 17.2
2017-Feb-24 14:24 090 0 gusting 0 17.2
2017-Feb-24 14:14 050 0 gusting 0 17.2
2017-Feb-24 14:04 050 0 gusting 0 17.2
2017-Feb-24 13:54 300 0 gusting 0 17.2
2017-Feb-24 13:44 300 0 gusting 0 17.2
2017-Feb-24 13:34 300 0 gusting 0 17.2
2017-Feb-24 13:24 300 0 gusting 0 17.2
2017-Feb-24 13:14 270 0 gusting 0 17.2
2017-Feb-24 13:04 270 0 gusting 0 17.2
2017-Feb-24 12:54 17.2
2017-Feb-24 12:44 17.2
2017-Feb-24 12:34 090 0 gusting 0 16.1
2017-Feb-24 12:24 090 0 gusting 0 16.1
2017-Feb-24 12:14 13.9
2017-Feb-24 12:04 13.9
2017-Feb-24 11:54 13.9
2017-Feb-24 11:44 13.9
2017-Feb-24 11:34 270 0 gusting 0 12.8
2017-Feb-24 11:24 270 0 gusting 0 12.8
2017-Feb-24 11:14 270 0 gusting 0 12.8
2017-Feb-24 11:04 270 0 gusting 0 12.8
2017-Feb-24 10:54 320 0 gusting 0 12.2
2017-Feb-24 10:44 320 0 gusting 0 12.2
2017-Feb-24 10:34 270 0 gusting 0 12.2
2017-Feb-24 10:24 270 0 gusting 0 12.2
2017-Feb-24 10:14 090 0 gusting 0 12.2
2017-Feb-24 10:04 090 0 gusting 0 12.2
2017-Feb-24 09:54 090 0 gusting 0 12.2
2017-Feb-24 09:44 090 0 gusting 0 12.2
2017-Feb-24 09:34 050 0 gusting 0 10.0
2017-Feb-24 09:24 050 0 gusting 0 10.0
2017-Feb-24 09:14 050 0 gusting 0 10.0
2017-Feb-24 09:04 050 0 gusting 0 10.0
2017-Feb-24 08:54 090 0 gusting 0 8.9
2017-Feb-24 08:44 090 0 gusting 0 8.9
2017-Feb-24 08:34 270 0 gusting 0 8.9
2017-Feb-24 08:24 270 0 gusting 0 8.9
2017-Feb-24 08:14 270 0 gusting 0 8.9
2017-Feb-24 08:04 270 0 gusting 0 8.9
2017-Feb-24 07:54 270 0 gusting 0 8.9
2017-Feb-24 07:44 270 0 gusting 0 8.9
2017-Feb-24 07:34 320 0 gusting 0 8.9
2017-Feb-24 07:24 320 0 gusting 0 8.9
2017-Feb-24 07:14 140 0 gusting 0 7.8
2017-Feb-24 07:04 140 0 gusting 0 7.8
2017-Feb-24 06:54 140 0 gusting 0 7.8
2017-Feb-24 06:44 140 0 gusting 0 7.8
2017-Feb-24 06:33 090 0 gusting 0 7.8
2017-Feb-24 06:23 090 0 gusting 0 7.8
2017-Feb-24 06:14 090 0 gusting 0 7.8
2017-Feb-24 06:03 090 0 gusting 0 7.8
2017-Feb-24 05:53 270 0 gusting 0 7.8
2017-Feb-24 05:43 270 0 gusting 0 7.8
2017-Feb-24 05:33 090 0 gusting 0 7.8
2017-Feb-24 05:23 090 0 gusting 0 7.8
2017-Feb-24 05:13 330 0 gusting 0 7.8
2017-Feb-24 05:03 330 0 gusting 0 7.8
2017-Feb-24 04:53 090 0 gusting 0 7.8
2017-Feb-24 04:43 090 0 gusting 0 7.8
2017-Feb-24 04:33 090 0 gusting 0 7.8
2017-Feb-24 04:23 090 0 gusting 0 7.8
2017-Feb-24 04:13 090 0 gusting 0 7.8
2017-Feb-24 04:03 090 0 gusting 0 7.8
2017-Feb-24 03:53 120 0 gusting 0 7.8
2017-Feb-24 03:43 120 0 gusting 0 7.8
2017-Feb-24 03:33 090 0 gusting 0 7.8
2017-Feb-24 03:23 090 0 gusting 0 7.8
2017-Feb-24 03:13 140 0 gusting 0 7.8
2017-Feb-24 03:09 140 0 gusting 0 7.8
2017-Feb-24 02:53 270 0 gusting 0 7.8
2017-Feb-24 02:43 270 0 gusting 0 7.8
2017-Feb-24 02:33 240 0 gusting 0 7.8
2017-Feb-24 02:23 240 0 gusting 0 7.8
2017-Feb-24 02:13 7.2
2017-Feb-24 02:03 7.2
2017-Feb-24 01:53 270 0 gusting 0 7.8
2017-Feb-24 01:43 270 0 gusting 0 7.8
2017-Feb-24 01:33 230 0 gusting 0 7.8
2017-Feb-24 01:23 230 0 gusting 0 7.8
2017-Feb-24 01:13 090 0 gusting 0 7.8
2017-Feb-24 01:03 090 0 gusting 0 7.8